This demonstration page uses our WeatherBlox Daily Observations layout. Learn more.

Left ArrowRight Arrow

41.86663, -103.66717

Hourly Observations for April 9, 2017

Temp ( °F °C ) Dew Point ( °F °C ) Humidity (%) Winds ( mph kmh ) Pressure ( in mb ) Visibility ( mi km ) Precip ( " mm )
12:53 am 00:53 Clear 50 10 39 3.9 66 66 W 7 11 29.51 999 10 16.0934 N/A
1:53 am 01:53 Cloudy 51 10.6 39 3.9 64 64 N N/A 29.51 999 10 16.0934 N/A
2:53 am 02:53 Cloudy with Light Rain 49 9.4 40 4.4 71 71 WNW 15 24 29.55 1001 10 16.0934 0.01 0.254
3:53 am 03:53 Cloudy 51 10.6 40 4.4 66 66 WSW 8 13 29.52 1000 10 16.0934 N/A
4:53 am 04:53 Cloudy 51 10.6 39 3.9 64 64 SE 12 19 29.48 998 10 16.0934 N/A
5:53 am 05:53 Mostly Cloudy 48 8.9 41 5 77 77 E 8 13 29.49 999 10 16.0934 N/A
6:53 am 06:53 Sunny 42 5.6 39 3.9 89 89 E 7 11 29.54 1000 10 16.0934 N/A
7:53 am 07:53 Mostly Sunny 49 9.4 42 5.6 77 77 N N/A 29.54 1001 10 16.0934 N/A
8:53 am 08:53 Sunny 55 12.8 38 3.3 53 53 WNW 17 28 29.56 1001 10 16.0934 N/A
9:53 am 09:53 Sunny 59 15 35 1.7 41 41 NW 18 30 29.57 1001 10 16.0934 N/A
10:53 am 10:53 Mostly Sunny 59 15 35 1.7 41 41 WNW 16 26 29.59 1002 10 16.0934 N/A
11:53 am 11:53 Cloudy 58 14.4 33 0.6 39 39 W 24 39 29.61 1003 10 16.0934 N/A
12:53 pm 12:53 Mostly Cloudy 59 15 27 -2.8 29 29 W 22 35 29.62 1003 10 16.0934 N/A
1:53 pm 13:53 Partly Cloudy 56 13.3 22 -5.6 27 27 WNW 29 46 29.65 1004 10 16.0934 N/A
2:53 pm 14:53 Mostly Cloudy 58 14.4 19 -7.2 22 22 W 26 43 29.65 1004 10 16.0934 N/A
3:53 pm 15:53 Mostly Sunny 56 13.3 21 -6.1 26 26 W 32 52 29.66 1004 10 16.0934 N/A
4:53 pm 16:53 Sunny 55 12.8 23 -5 29 29 W 28 44 29.69 1005 10 16.0934 N/A
5:53 pm 17:53 Sunny 52 11.1 24 -4.4 34 34 W 30 48 29.73 1007 10 16.0934 N/A
6:53 pm 18:53 Sunny 47 8.3 27 -2.8 46 46 NW 30 48 29.8 1009 10 16.0934 N/A
7:53 pm 19:53 Mostly Cloudy 43 6.1 28 -2.2 56 56 NW 29 46 29.83 1010 10 16.0934 N/A
8:53 pm 20:53 Mostly Clear 40 4.4 29 -1.7 65 65 NW 23 37 29.84 1011 10 16.0934 N/A
9:53 pm 21:53 Clear 38 3.3 27 -2.8 65 65 NW 28 44 29.87 1011 10 16.0934 N/A
10:53 pm 22:53 Clear 36 2.2 27 -2.8 70 70 WNW 18 30 29.88 1012 10 16.0934 N/A
11:53 pm 23:53 Partly Cloudy 37 2.8 27 -2.8 67 67 WNW 21 33 29.9 1013 10 16.0934 N/A

Powered by AerisWeather